Showing default

CENTAURI-1, 43809

Orbit data source: Space-Track

CENTAURI-1, 43809 is a payload satellite owned by Fleet Space (AU) in SSO that was launched on Mon, 03 Dec 2018 UTC via an FALCON 9 launch vehicle from the Air Force Western Test Range (AFWTR). Payload-class satellites include a variety of spacecraft equipped with specific instruments for various scientific and technological missions. These include communications satellites like Starlink; space stations such as the ISS; scientific satellites like the Hubble; Earth observation satellites from companies like Planet Labs, Umbra, and HawkEye 360; GPS; miniature CubeSats for education and research; and military/defense satellites.

Loading next visibility...
Identifier
43809, 2018-099BD
Orbit
SSO
Country
Flag of AUAU / AUS
Related business
Manufacturer
Fleet Space
Mission
Operational Commercial Communications
Bus & Motor
CUBESAT 3U, Unknown motor
Mass
5 kg wet, 5 kg dry
Launch date (UTC)
2018-12-03 (8 years ago)
Launch vehicle
FALCON 9
Launch site
Air Force Western Test Range (AFWTR)
Object type
Payload
Rocket body
Debris
Shape & HBR
Box + 2 Pan, 0.2 m
Radar Cross Section
0.035 m², Medium (>0.1 m² and < 1m²)

Expand to show TLE details & history
Last TLE update: 8 hours ago

TLE from 8 hours ago
0 CENTAURI-1
1 43809U 18099BD  26220.13132978  .00002497  00000-0  12999-3 0  9992
2 43809  97.4190 270.7408 0015155 142.3923 217.8373 15.16840693420375
Epoch: 2026-08-08T03:09Z
TLE epoch observation values (Epoch: 2026-08-08T03:09:06.892Z)
Latitude
-0.00008°
Longitude
-93.18498°
Altitude
526.74 km
Speed
7.595 km/s
True Right ascension
18h 02m 57s
True Declination
0° 00' 00"
Sunlit
Object was in full shadow at epoch
Visualization orbit readout
Latitude
Unknown
Longitude
Unknown
Altitude
Unknown
Speed
Unknown
Apparent Right ascension
Unknown
Apparent Declination
Unknown
Sunlit
N/A
Visualization observer readout
Local Sidereal Time
01:05:05
Azimuth
Unknown
Elevation
Unknown
Doppler factor
Unknown
Orbital elements
Apogee altitude
522.809 km
Perigee altitude
501.924 km
Semi-major axis
6,890.504 km
Eccentricity
0.00152
Inclination
97.419°
RAAN
270.7408°
Arg. of periapsis
142.3923°
True anomaly
217.73093°
Mean anomaly
217.8373°
Eccentric anomaly
217.7841°
Mean motion
3.79461 °/min
Orbital period
94.87 mins
BSTAR
0.00012999
Loading maneuver chart data...
Computing Atmospheric mass density...
Loading historical data...
Loading historical data...
Loading historical data...
Loading historical data...
Loading historical data...
Loading historical data...
Loading historical data...

Documentation

Showing up to 5 results
|